Location: *
(51.5000°N, 0.1100°W)
Time: 18:36:58
(UTC+00:00)

ALOS - Pass Details

Date: 25 May 2024
Orbit: 672 x 676 km, 98.0° (Epoch: 24 June)

Event Time Altitude Azimuth Distance (km) Brightness Sun altitude
Rises 02:29:20 0° 18° (NNE) 3,041 7.2 -10.2°
Reaches altitude 10° 02:31:39 10° 24° (NNE) 2,121 6.3 -10.0°
Maximum altitude 02:36:09 48° 99° (E) 880 3.1 -9.6°
Drops below altitude 10° 02:40:36 10° 174° (S) 2,102 4.4 -9.2°
Enters shadow 02:41:52 - 178° (S) 2,604 4.8 -9.0°
